sat.trackr.live / text

‹ back to catalog

STARLINK-37146

NORAD 68555 · 2026-070P

PAYLOAD ACTIVE UNKNOWN

§ Identity

Operator
Country
US
Launch date
2026-04-02
Launch site
AFETR
Launch vehicle
Mass (kg)
RCS (m²)

Purposes: comms

External: N2YO · Heavens-Above · Gunter

§ Orbital elements

Epoch: 2026-09-19T11:56:06.430560Z

Period
93.85 min
Inclination
53.1587°
Eccentricity
0.0000898
Mean motion
15.34401374 rev/d
Perigee alt
462.1 km
Apogee alt
463.3 km
Semi-major
6,840.8 km
B*
3.6659e-4
RAAN
178.3837°
Arg perigee
76.6926°
Mean anomaly
283.4177°
Rev number
2,628

§ Raw data

STARLINK-371461 68555U 26070P   26262.49729665  .00012030  00000+0  36659-3 0  99972 68555  53.1587 178.3837 0000898  76.6926 283.4177 15.34401374 26280

JSON: /api/v1/satellites/68555 · /tle

For live sub-satellite position, see the globe view (requires WebGL).

§ Visibility from observer

Set your observer location to see the next 7 days of passes ≥ 10°. The values pass through the URL so the page stays shareable.

No JS? Fill the form by hand. The geolocation button needs JavaScript.